Time,TemperatureF,DewpointF,PressureIn,WindDirection,WindDirectionDegrees,WindSpeedMPH,WindSpeedGustMPH,Humidity,HourlyPrecipIn,Conditions,Clouds,dailyrainin,SoftwareType,DateUTC
2013-05-31 00:00:00,63.0,49.7,29.81,WSW,247,3.0,4.0,62,0.00,,,0.00,Weather View 32 v70,2013-05-31 07:00:00,
2013-05-31 00:30:00,62.0,50.1,29.81,WNW,292,5.0,6.0,65,0.00,,,0.00,Weather View 32 v70,2013-05-31 07:30:00,
2013-05-31 01:00:00,62.0,50.1,29.81,WNW,292,0.0,7.0,65,0.00,,,0.00,Weather View 32 v70,2013-05-31 08:00:00,
2013-05-31 01:30:00,60.0,49.8,29.81,WNW,292,0.0,7.0,69,0.00,,,0.00,Weather View 32 v70,2013-05-31 08:30:00,
2013-05-31 02:00:00,58.0,51.5,29.79,WNW,292,0.0,4.0,79,0.00,,,0.00,Weather View 32 v70,2013-05-31 09:00:00,
2013-05-31 02:30:00,59.0,52.5,29.79,WNW,292,4.0,6.0,79,0.00,,,0.00,Weather View 32 v70,2013-05-31 09:30:00,
2013-05-31 03:00:00,57.0,51.9,29.79,WNW,292,0.0,6.0,83,0.00,,,0.00,Weather View 32 v70,2013-05-31 10:00:00,
2013-05-31 03:30:00,55.0,52.1,29.78,WNW,292,0.0,6.0,90,0.00,,,0.00,Weather View 32 v70,2013-05-31 10:30:00,
2013-05-31 04:00:00,53.0,49.2,29.77,WNW,292,0.0,2.0,87,0.00,,,0.00,Weather View 32 v70,2013-05-31 11:00:00,
2013-05-31 04:30:00,52.0,44.0,29.77,WNW,292,0.0,0.0,74,0.00,,,0.00,Weather View 32 v70,2013-05-31 11:30:00,
2013-05-31 05:00:00,52.0,-1.0,29.77,WNW,292,0.0,0.0,11,0.00,,,0.00,Weather View 32 v70,2013-05-31 12:00:00,
2013-05-31 05:30:00,52.0,15.3,29.77,SW,225,0.0,5.0,23,0.00,,,0.00,Weather View 32 v70,2013-05-31 12:30:00,
2013-05-31 06:00:00,52.0,30.2,29.78,SW,225,0.0,5.0,43,0.00,,,0.00,Weather View 32 v70,2013-05-31 13:00:00,
2013-05-31 06:30:00,55.0,38.6,29.81,SE,135,0.0,0.0,54,0.00,,,0.00,Weather View 32 v70,2013-05-31 13:30:00,
2013-05-31 07:00:00,59.0,52.8,29.84,SE,135,0.0,2.0,80,0.00,,,0.00,Weather View 32 v70,2013-05-31 14:00:00,
2013-05-31 07:30:00,61.0,57.1,29.87,SE,135,0.0,6.0,87,0.00,,,0.00,Weather View 32 v70,2013-05-31 14:30:00,
2013-05-31 08:00:00,64.0,57.7,29.89,SE,135,1.0,6.0,80,0.00,,,0.00,Weather View 32 v70,2013-05-31 15:00:00,
2013-05-31 08:30:00,66.0,55.9,29.91,ENE,67,0.0,7.0,70,0.00,,,0.00,Weather View 32 v70,2013-05-31 15:30:00,
2013-05-31 09:00:00,70.0,53.0,29.93,ESE,112,5.0,7.0,55,0.00,,,0.00,Weather View 32 v70,2013-05-31 16:00:00,
2013-05-31 09:30:00,74.0,53.0,29.95,ESE,112,3.0,7.0,48,0.00,,,0.00,Weather View 32 v70,2013-05-31 16:30:00,
2013-05-31 10:00:00,74.0,51.8,29.95,ESE,112,0.0,8.0,46,0.00,,,0.00,Weather View 32 v70,2013-05-31 17:00:00,
2013-05-31 10:30:00,76.0,51.8,29.96,SSE,157,3.0,9.0,43,0.00,,,0.00,Weather View 32 v70,2013-05-31 17:30:00,
2013-05-31 11:00:00,77.0,51.4,29.96,SSW,202,0.0,9.0,41,0.00,,,0.00,Weather View 32 v70,2013-05-31 18:00:00,
2013-05-31 11:30:00,78.0,53.0,29.96,SE,135,0.0,9.0,42,0.00,,,0.00,Weather View 32 v70,2013-05-31 18:30:00,
2013-05-31 12:00:00,80.0,53.4,29.96,South,180,0.0,9.0,40,0.00,,,0.00,Weather View 32 v70,2013-05-31 19:00:00,
2013-05-31 12:30:00,82.0,51.6,29.95,SW,225,0.0,11.0,35,0.00,,,0.00,Weather View 32 v70,2013-05-31 19:30:00,
2013-05-31 13:00:00,84.0,52.5,29.95,NW,315,0.0,11.0,34,0.00,,,0.00,Weather View 32 v70,2013-05-31 20:00:00,
2013-05-31 13:30:00,86.0,51.7,29.95,WSW,247,0.0,0.0,31,0.00,,,0.00,Weather View 32 v70,2013-05-31 20:30:00,
2013-05-31 14:00:00,87.0,51.7,29.95,WNW,292,0.0,0.0,30,0.00,,,0.00,Weather View 32 v70,2013-05-31 21:00:00,
2013-05-31 14:30:00,88.0,53.5,29.94,SW,225,0.0,0.0,31,0.00,,,0.00,Weather View 32 v70,2013-05-31 21:30:00,
2013-05-31 15:00:00,87.0,50.8,29.94,NW,315,0.0,3.0,29,0.00,,,0.00,Weather View 32 v70,2013-05-31 22:00:00,
2013-05-31 15:30:00,88.0,52.6,29.93,WNW,292,0.0,6.0,30,0.00,,,0.00,Weather View 32 v70,2013-05-31 22:30:00,
2013-05-31 16:00:00,88.0,53.5,29.92,WSW,247,0.0,9.0,31,0.00,,,0.00,Weather View 32 v70,2013-05-31 23:00:00,
2013-05-31 16:30:00,88.0,52.6,29.91,North,360,2.0,11.0,30,0.00,,,0.00,Weather View 32 v70,2013-05-31 23:30:00,
2013-05-31 17:00:00,89.0,51.5,29.90,NNW,337,3.0,11.0,28,0.00,,,0.00,Weather View 32 v70,2013-06-01 00:00:00,
2013-05-31 17:30:00,89.0,49.5,29.89,NNW,337,6.0,12.0,26,0.00,,,0.00,Weather View 32 v70,2013-06-01 00:30:00,
2013-05-31 18:00:00,88.0,51.6,29.89,WNW,292,4.0,12.0,29,0.00,,,0.00,Weather View 32 v70,2013-06-01 01:00:00,
2013-05-31 18:30:00,88.0,51.6,29.89,WNW,292,6.0,12.0,29,0.00,,,0.00,Weather View 32 v70,2013-06-01 01:30:00,
2013-05-31 19:00:00,86.0,52.6,29.88,West,270,5.0,12.0,32,0.00,,,0.00,Weather View 32 v70,2013-06-01 02:00:00,
2013-05-31 19:30:00,83.0,50.0,29.87,WNW,292,4.0,12.0,32,0.00,,,0.00,Weather View 32 v70,2013-06-01 02:30:00,
2013-05-31 20:00:00,80.0,49.8,29.87,West,270,6.0,10.0,35,0.00,,,0.00,Weather View 32 v70,2013-06-01 03:00:00,
2013-05-31 20:30:00,77.0,48.7,29.85,WNW,292,4.0,9.0,37,0.00,,,0.00,Weather View 32 v70,2013-06-01 03:30:00,
2013-05-31 21:00:00,75.0,49.0,29.84,WNW,292,0.0,7.0,40,0.00,,,0.00,Weather View 32 v70,2013-06-01 04:00:00,
2013-05-31 21:04:00,75.0,49.0,29.84,WNW,292,0.0,7.0,40,0.00,,,0.00,Weather View 32 v70,2013-06-01 04:04:00,
2013-05-31 21:30:00,73.0,49.7,29.84,WNW,292,0.0,7.0,44,0.00,,,0.00,Weather View 32 v70,2013-06-01 04:30:00,
2013-05-31 22:00:00,71.0,50.3,29.84,WNW,292,0.0,5.0,48,0.00,,,0.00,Weather View 32 v70,2013-06-01 05:00:00,
2013-05-31 22:04:00,71.0,50.3,29.84,WNW,292,0.0,5.0,48,0.00,,,0.00,Weather View 32 v70,2013-06-01 05:04:00,
2013-05-31 22:30:00,68.0,49.1,29.83,WNW,292,0.0,5.0,51,0.00,,,0.00,Weather View 32 v70,2013-06-01 05:30:00,
2013-05-31 23:00:00,66.0,55.5,29.83,WNW,292,0.0,0.0,69,0.00,,,0.00,Weather View 32 v70,2013-06-01 06:00:00,
2013-05-31 23:05:00,66.0,55.5,29.83,WNW,292,0.0,0.0,69,0.00,,,0.00,Weather View 32 v70,2013-06-01 06:05:00,
2013-05-31 23:30:00,64.0,60.7,29.81,SSE,157,0.0,0.0,89,0.00,,,0.00,Weather View 32 v70,2013-06-01 06:30:00,